Location: *
(53.4003°S, 165.3236°W)
Time: 03:19:41
(UTC+00:00)

Thor Agena Rocket - Pass Details

Date: 11 December 2023
Orbit: 758 x 804 km, 99.1° (Epoch: 24 February)

Event Time Altitude Azimuth Distance (km) Brightness Sun altitude
Rises 12:21:20 0° 32° (NNE) 3,272 6.4 -11.3°
Reaches altitude 10° 12:23:39 10° 36° (NE) 2,358 5.7 -11.2°
Maximum altitude 12:28:45 58° 113° (ESE) 941 4.2 -10.9°
Drops below altitude 10° 12:33:59 10° 190° (S) 2,412 7.0 -10.6°
Sets 12:36:22 0° 194° (SSW) 3,354 7.7 -10.5°
